Probability
84 81 84 84 74 77 74 74 77 81 81 74 74 68 61 68 68 65 71 87 90 90 94 94 97 100 100 100 100 97 100 100 100 100 100 100 100 100 97 97 97 94 87
77 74 77 77 84 74 68 65 61 61 68 71 71 68 71 65 74 68 61 68 87 84 90 94 94 100 97 100 100 97 97 100 100 100 100 100 100 100 100 100 100 97 90
68 68 68 61 52 48 52 45 35 39 45 42 39 42 55 65 55 61 71 71 74 77 81 84 90 97 97 97 97 100 97 97 100 100 100 100 100 97 100 100 100 100 84
45 55 45 39 35 35 29 29 32 32 29 29 32 29 45 48 58 55 52 55 65 55 71 81 87 94 94 94 100 100 97 97 94 94 100 97 97 97 97 100 100 87 65
23 26 32 32 29 26 19 13 13 19 16 16 16 32 29 42 45 35 39 39 42 61 55 65 81 87 81 84 97 97 97 94 87 90 87 94 94 97 90 94 84 71 52
13 13 16 16 13 10 13 10 10 16 16 13 6 13 19 16 16 19 23 26 23 26 35 48 61 61 68 77 90 97 94 90 84 81 77 87 87 87 81 65 65 48 42
3 6 3 0 3 3 6 0 10 6 6 6 6 6 10 13 13 19 19 13 16 19 29 42 42 55 58 55 61 84 84 87 87 84 74 71 84 84 58 29 29 29 26
3 0 0 0 0 0 0 0 0 3 0 0 0 6 3 13 16 10 16 26 16 19 23 23 32 55 58 68 45 42 71 74 74 74 74 71 71 68 32 23 6 3 10
0 0 0 0 0 0 0 0 0 0 0 0 0 0 0 0 3 6 3 6 6 19 19 16 23 29 48 65 74 26 42 52 74 71 77 68 48 32 29 19 13 6 0
0 0 0 0 0 0 0 0 0 0 0 0 0 0 3 3 0 0 0 0 3 3 6 10 10 13 23 45 58 26 23 32 45 55 65 48 42 23 13 16 26 19 6
0 0 0 0 0 0 0 0 0 0 0 0 0 0 0 0 0 0 3 3 0 0 3 6 10 16 23 29 52 26 3 10 16 35 35 42 35 29 26 23 39 42 35
0 0 0 0 0 0 0 0 0 0 0 0 0 0 0 0 0 0 0 0 6 3 0 0 6 6 13 16 16 3 3 3 6 6 16 29 29 26 23 26 42 55 58
0 0 0 0 0 0 0 0 0 0 0 0 0 0 0 0 0 0 0 0 0 3 0 0 6 6 3 13 26 0 0 0 0 0 0 6 16 16 16 23 32 48 52
0 0 0 0 0 0 0 0 0 0 0 0 0 0 0 0 0 0 0 0 0 0 0 0 3 13 19 10 0 0 0 0 0 0 0 0 0 3 6 10 10 13 29
0 0 0 0 0 0 0 0 0 0 0 0 0 0 0 0 0 0 0 0 0 0 0 0 0 10 23 13 0 6 13 0 0 0 0 0 0 0 0 0 0 0 0
0 0 0 0 0 0 0 0 0 0 0 0 0 0 0 0 0 0 0 0 0 0 0 0 3 3 3 0 0 6 6 0 0 0 0 0 0 0 0 0 0 0 0
0 0 0 0 0 0 0 0 0 0 0 0 0 0 0 0 0 0 0 0 0 0 0 0 0 0 3 3 0 6 3 3 0 0 0 0 0 0 0 0 0 0 0
0 0 0 0 0 0 0 0 0 0 0 0 0 0 0 0 0 0 0 0 0 0 0 0 0 0 0 3 0 3 0 0 3 0 0 0 0 0 0 0 0 0 0
0 0 0 0 0 0 0 0 0 0 0 0 0 0 0 0 0 0 0 0 0 0 0 0 0 0 0 3 0 0 0 0 0 0 0 0 0 0 0 0 0 0 0
0 0 0 0 0 0 0 0 0 0 0 0 0 0 0 0 0 0 0 0 0 0 0 0 0 0 0 3 3 0 0 0 0 0 0 0 0 0 0 0 0 0 0
0 0 0 0 0 0 0 0 0 0 0 0 0 0 0 0 0 0 0 0 0 0 0 0 0 0 0 0 3 0 0 0 0 0 0 0 0 0 0 0 0 0 0
0 0 0 0 0 0 0 0 0 0 0 0 0 0 0 0 0 0 0 0 0 0 0 0 0 0 0 0 0 0 0 0 0 0 0 0 0 0 0 0 0 0 0
0 0 0 0 0 0 0 0 0 0 0 0 0 0 0 0 0 0 0 0 0 0 0 0 0 0 0 0 0 0 0 0 0 0 0 0 0 0 0 0 0 0 0
0 0 0 0 0 0 0 0 0 0 0 0 0 0 0 0 0 0 0 0 0 0 0 0 0 0 0 0 0 0 0 0 0 0 0 0 0 0 0 0 0 0 0
0 0 0 0 0 0 0 0 0 0 0 0 0 0 0 0 0 0 0 0 0 0 0 0 0 0 0 0 0 0 0 0 0 0 0 0 0 0 0 0 0 0 0
0 0 0 0 0 0 0 0 0 0 0 0 0 0 0 0 0 0 0 0 0 0 0 0 0 0 0 0 0 0 0 0 0 0 0 0 0 0 0 0 0 0 0
Height
5873 5872 5871 5871 5871 5871 5871 5871 5871 5871 5871 5871 5871 5871 5872 5872 5872 5872 5873 5874 5875 5876 5878 5880 5882 5884 5886 5888 5890 5893 5895 5898 5900 5902 5904 5907 5909 5911 5913 5914 5916 5917 5919
5868 5867 5866 5866 5866 5865 5865 5865 5865 5865 5865 5865 5865 5865 5865 5866 5866 5867 5867 5868 5868 5870 5872 5874 5876 5878 5880 5883 5885 5888 5890 5893 5896 5898 5900 5903 5906 5908 5910 5912 5914 5915 5917
5863 5861 5860 5860 5860 5859 5859 5859 5859 5858 5858 5859 5859 5859 5859 5859 5860 5860 5861 5862 5862 5863 5865 5867 5869 5872 5874 5877 5880 5883 5885 5888 5891 5894 5896 5899 5902 5904 5907 5909 5911 5913 5915
5857 5855 5855 5854 5853 5853 5852 5852 5851 5852 5852 5852 5851 5851 5851 5852 5853 5853 5854 5855 5856 5857 5859 5860 5862 5865 5867 5870 5873 5876 5879 5882 5885 5888 5892 5895 5897 5900 5903 5906 5908 5910 5912
5851 5849 5848 5848 5847 5846 5845 5845 5844 5844 5844 5844 5844 5844 5844 5845 5845 5846 5847 5848 5849 5850 5852 5853 5855 5857 5860 5863 5866 5870 5873 5876 5879 5883 5886 5889 5893 5896 5899 5902 5904 5907 5909
5845 5843 5842 5841 5840 5839 5838 5837 5837 5836 5835 5836 5836 5835 5836 5836 5837 5838 5839 5840 5841 5843 5844 5846 5848 5850 5853 5856 5859 5862 5865 5869 5873 5876 5880 5884 5887 5891 5894 5897 5900 5903 5905
5839 5837 5835 5834 5832 5831 5830 5830 5829 5828 5828 5827 5827 5827 5828 5828 5828 5829 5830 5832 5833 5835 5836 5838 5840 5843 5845 5848 5851 5854 5858 5862 5866 5869 5874 5877 5881 5885 5889 5892 5895 5898 5901
5832 5830 5828 5827 5825 5824 5823 5822 5821 5820 5819 5819 5819 5819 5819 5820 5820 5820 5821 5823 5824 5826 5828 5830 5832 5835 5837 5840 5844 5847 5850 5854 5858 5862 5866 5871 5875 5879 5883 5887 5890 5893 5896
5826 5824 5822 5820 5818 5816 5815 5814 5813 5812 5811 5810 5810 5810 5810 5811 5811 5812 5813 5814 5816 5817 5819 5821 5824 5827 5830 5833 5836 5839 5842 5846 5850 5855 5859 5863 5868 5873 5877 5881 5885 5888 5891
5819 5817 5815 5813 5811 5809 5807 5806 5805 5804 5802 5802 5801 5801 5801 5801 5802 5802 5803 5805 5806 5808 5810 5812 5815 5818 5821 5824 5827 5831 5834 5838 5842 5847 5851 5855 5860 5865 5870 5875 5879 5882 5886
5813 5811 5808 5806 5804 5802 5800 5798 5796 5795 5794 5793 5792 5792 5792 5792 5792 5793 5794 5795 5796 5799 5801 5803 5806 5809 5812 5815 5819 5823 5826 5830 5834 5838 5843 5847 5853 5858 5863 5868 5872 5876 5880
5807 5804 5802 5799 5797 5794 5792 5790 5788 5786 5785 5783 5782 5782 5782 5782 5782 5783 5784 5785 5786 5788 5791 5794 5797 5800 5803 5806 5810 5814 5817 5821 5825 5830 5834 5839 5845 5850 5856 5861 5866 5870 5874
5801 5798 5795 5792 5789 5786 5784 5781 5779 5777 5775 5774 5772 5771 5771 5771 5772 5773 5774 5775 5776 5778 5780 5784 5787 5790 5793 5796 5800 5804 5808 5812 5817 5821 5826 5831 5837 5843 5848 5854 5859 5864 5868
5795 5791 5788 5784 5781 5778 5775 5772 5769 5767 5765 5763 5762 5761 5760 5760 5760 5761 5763 5765 5766 5768 5770 5773 5776 5779 5783 5786 5791 5795 5799 5803 5808 5813 5818 5824 5829 5835 5841 5846 5852 5857 5862
5788 5784 5780 5777 5773 5770 5766 5763 5760 5757 5754 5752 5751 5750 5749 5749 5749 5750 5751 5753 5756 5758 5760 5763 5766 5769 5773 5777 5781 5785 5790 5794 5799 5804 5810 5815 5821 5827 5833 5839 5845 5850 5855
5781 5777 5773 5768 5764 5760 5757 5753 5750 5747 5744 5741 5740 5738 5737 5737 5737 5738 5740 5741 5744 5746 5750 5752 5755 5758 5763 5767 5772 5776 5781 5785 5790 5795 5801 5807 5813 5819 5826 5832 5838 5843 5849
5774 5769 5764 5760 5755 5751 5747 5743 5739 5736 5733 5730 5728 5727 5726 5725 5726 5726 5728 5730 5732 5735 5738 5742 5744 5748 5753 5757 5762 5767 5771 5776 5781 5787 5792 5799 5805 5811 5817 5824 5830 5836 5842
5766 5761 5756 5751 5746 5741 5737 5732 5728 5725 5722 5719 5717 5715 5714 5714 5714 5714 5716 5717 5720 5723 5727 5731 5734 5738 5742 5747 5752 5757 5762 5767 5772 5778 5783 5790 5796 5803 5809 5816 5822 5828 5834
5758 5752 5747 5741 5736 5731 5726 5721 5717 5713 5710 5707 5705 5703 5702 5701 5702 5702 5703 5705 5708 5711 5715 5719 5723 5727 5732 5737 5742 5747 5752 5758 5763 5768 5774 5781 5787 5794 5801 5808 5815 5821 5827
5749 5743 5737 5732 5726 5720 5715 5710 5706 5702 5698 5695 5692 5690 5689 5688 5689 5689 5690 5693 5695 5698 5702 5706 5711 5716 5721 5726 5731 5737 5742 5748 5754 5759 5765 5771 5778 5785 5792 5799 5806 5813 5820
5740 5734 5728 5721 5715 5709 5704 5699 5694 5690 5686 5682 5679 5677 5676 5675 5675 5676 5677 5680 5682 5686 5689 5694 5699 5704 5709 5715 5721 5726 5732 5738 5744 5749 5756 5762 5769 5776 5783 5790 5798 5805 5812
5731 5724 5718 5711 5704 5698 5693 5688 5682 5678 5673 5670 5667 5664 5662 5662 5662 5662 5664 5665 5668 5672 5677 5681 5686 5692 5698 5704 5710 5716 5722 5728 5735 5741 5746 5753 5759 5767 5774 5781 5789 5797 5804
5722 5715 5707 5701 5694 5687 5682 5676 5671 5666 5661 5657 5654 5651 5649 5648 5648 5648 5649 5651 5654 5657 5662 5667 5673 5679 5685 5692 5699 5705 5711 5718 5724 5731 5737 5743 5750 5757 5765 5773 5780 5788 5796
5712 5705 5697 5690 5683 5677 5671 5665 5659 5654 5649 5645 5641 5638 5635 5634 5633 5633 5634 5636 5639 5643 5648 5653 5660 5666 5672 5679 5686 5693 5700 5707 5714 5720 5727 5734 5741 5748 5756 5764 5772 5780 5788
5703 5695 5688 5680 5673 5666 5660 5654 5648 5642 5637 5633 5629 5625 5622 5620 5619 5619 5620 5622 5624 5628 5632 5638 5645 5651 5658 5666 5674 5681 5689 5697 5703 5710 5717 5725 5732 5739 5746 5754 5763 5772 5780
5693 5685 5678 5670 5663 5656 5650 5643 5637 5631 5626 5622 5617 5613 5609 5607 5605 5604 5605 5607 5610 5613 5618 5624 5630 5638 5645 5653 5661 5670 5678 5686 5693 5700 5708 5716 5723 5729 5737 5745 5754 5763 5771
Wind_Speed
26 26 27 26 25 25 25 25 25 25 24 24 24 23 23 22 21 21 21 22 24 26 26 27 29 30 28 27 26 25 24 23 22 21 20 19 18 17 16 15 14 12 11
26 26 26 26 26 26 26 26 27 27 27 26 26 25 25 24 23 24 23 23 24 25 26 28 30 31 32 30 29 27 27 26 25 24 23 22 21 19 18 17 15 14 13
24 25 25 25 26 27 27 28 29 29 29 29 28 28 27 27 26 26 25 24 25 25 26 28 30 32 33 32 31 30 29 29 28 27 26 25 23 22 21 19 18 16 15
22 23 24 25 25 26 28 29 29 30 31 31 30 30 30 29 28 28 28 27 27 27 28 28 29 33 34 34 34 33 32 31 31 29 28 27 26 24 23 22 20 19 18
23 24 25 26 27 28 28 29 30 31 32 32 31 31 31 31 31 31 30 30 29 29 30 30 30 32 35 35 35 36 35 33 33 32 31 30 28 27 26 24 23 22 20
23 25 26 26 28 29 30 30 31 31 32 31 32 33 33 33 33 33 33 32 32 31 31 31 31 32 33 35 35 36 37 37 35 35 33 33 31 30 28 26 25 23 23
24 25 26 26 27 28 29 30 31 31 32 32 33 33 33 34 34 34 34 34 34 33 33 33 33 33 34 34 35 37 37 38 38 37 36 35 34 32 31 29 27 25 24
24 25 25 25 26 27 28 28 29 30 31 31 32 33 33 34 35 35 35 35 35 35 35 35 35 34 36 36 35 37 38 38 39 39 38 37 36 35 32 31 29 27 26
24 25 24 25 26 27 28 28 29 29 30 31 31 32 33 34 35 36 36 37 36 36 35 36 36 36 36 37 37 38 39 39 40 40 41 40 39 37 35 32 31 30 28
24 24 24 25 26 27 28 28 29 30 31 32 32 33 33 34 35 36 36 37 38 37 37 37 37 37 37 37 37 37 38 39 40 41 41 42 41 39 37 34 32 31 30
24 24 25 26 26 27 28 29 30 31 31 32 33 34 34 35 35 36 37 38 38 39 39 39 39 39 39 38 38 38 38 40 40 41 41 42 43 42 39 36 34 32 31
25 25 25 26 27 28 29 30 30 31 32 33 34 35 36 36 37 37 37 39 39 39 39 40 40 40 40 40 39 38 39 41 41 40 40 41 42 43 40 38 35 33 32
25 25 26 26 27 28 29 30 31 32 33 34 35 36 37 38 38 38 38 39 40 40 40 40 41 42 42 42 41 40 40 40 42 41 40 41 42 42 41 40 37 35 33
26 26 27 27 28 29 30 31 32 33 34 35 36 37 37 38 39 39 39 39 40 40 41 41 41 42 43 43 42 41 40 41 42 43 42 43 43 42 41 39 38 36 35
27 27 28 29 29 30 31 32 33 34 34 35 36 36 37 38 39 39 40 40 40 41 41 41 42 43 43 42 43 42 41 41 42 43 43 44 44 43 42 40 39 37 36
28 29 30 31 31 32 32 33 34 34 35 35 36 36 37 38 39 39 40 40 40 41 41 41 42 43 43 42 43 43 42 41 41 43 43 44 44 43 42 40 39 38 37
31 31 32 33 33 34 34 34 35 35 35 35 35 36 37 38 38 39 40 41 41 41 41 42 43 43 43 42 42 43 43 42 40 42 43 44 44 44 43 42 41 39 38
33 34 34 35 35 36 36 36 35 35 35 35 36 36 37 38 38 39 40 41 42 42 42 42 44 44 43 43 43 43 44 43 42 42 42 44 45 45 44 43 42 40 39
35 36 37 37 37 37 37 37 36 36 36 36 36 36 37 38 39 40 41 41 42 43 43 43 44 45 45 44 44 44 44 44 43 44 44 44 45 45 45 45 44 42 40
37 38 39 39 39 38 38 38 37 37 36 36 37 37 38 39 39 40 42 42 43 44 45 45 45 45 46 45 45 44 44 44 44 44 45 45 44 45 45 45 45 43 41
40 40 40 40 40 39 39 38 37 37 37 37 37 37 37 38 39 40 42 43 44 45 45 46 46 46 47 46 45 45 45 45 45 44 44 45 46 46 46 45 45 44 42
41 42 42 41 41 40 39 38 38 37 37 36 36 36 37 37 38 40 42 43 45 46 46 47 48 48 47 48 47 46 45 45 45 45 45 46 47 48 47 47 46 45 43
43 43 42 42 41 40 39 38 37 37 36 36 36 36 37 37 38 40 42 43 45 47 48 49 49 49 49 49 49 48 47 46 45 45 46 47 47 49 48 47 47 47 45
44 43 43 42 40 39 39 38 37 37 36 35 35 36 36 37 38 39 40 42 44 46 48 50 50 50 50 51 50 50 49 48 47 46 45 47 47 49 49 48 48 48 46
44 44 43 41 40 39 38 38 37 36 35 35 35 35 35 36 37 38 40 41 43 44 47 49 51 52 52 52 53 52 51 49 47 46 45 45 46 49 49 49 49 49 47
44 44 42 41 40 39 38 37 36 35 33 33 33 33 33 33 35 37 38 39 41 42 44 47 50 52 53 53 54 54 52 51 49 47 46 45 45 47 49 49 50 50 48
Wind_Direction
278 277 271 270 271 271 270 273 273 273 273 273 273 274 270 270 268 266 262 254 250 247 245 244 241 235 234 230 226 225 223 221 220 219 220 222 224 224 222 220 218 217 214
282 281 276 273 273 271 272 274 276 275 273 274 273 273 272 270 269 267 266 260 255 250 248 244 242 238 235 234 229 227 224 223 222 221 221 222 223 225 225 224 223 222 220
285 280 276 274 274 272 271 272 274 273 273 273 271 269 269 270 268 267 266 264 258 253 250 247 244 240 238 236 233 231 227 225 224 224 223 222 223 225 226 227 226 225 224
286 282 279 278 277 275 274 273 274 271 271 270 270 269 268 267 266 265 264 263 261 256 252 248 246 241 239 237 235 233 232 228 225 226 225 224 224 225 226 227 228 229 229
285 284 282 280 278 277 276 275 274 272 273 270 269 268 266 266 264 263 261 260 259 256 252 247 246 243 240 239 237 234 233 231 227 226 226 225 225 225 226 227 229 231 231
291 286 282 281 279 278 277 276 275 274 273 270 269 268 266 265 263 262 259 259 257 254 251 247 245 244 242 240 237 235 233 230 228 226 226 226 225 226 226 227 228 230 231
292 289 286 283 281 280 278 277 275 274 272 270 268 266 265 263 262 260 259 258 256 253 250 246 245 244 243 242 239 236 233 232 230 229 229 228 226 225 226 227 228 230 231
294 291 288 285 282 281 280 279 277 275 273 271 268 266 265 264 262 260 259 257 255 252 250 246 244 243 242 242 241 238 236 233 233 231 230 228 227 226 226 227 229 230 231
297 295 292 288 286 284 282 280 278 277 275 273 271 268 264 263 263 261 258 257 254 252 249 245 243 242 242 241 241 239 238 236 235 233 231 228 226 226 226 227 229 230 231
300 297 294 292 290 288 286 283 281 279 277 274 272 269 266 262 260 260 258 256 254 251 248 246 244 243 242 241 240 239 238 237 237 235 233 228 225 225 225 226 228 230 230
302 299 297 294 292 290 288 285 283 281 278 275 273 269 266 262 260 257 257 256 254 251 248 245 243 243 242 239 238 238 236 236 235 234 232 228 226 225 225 225 227 228 229
305 303 300 297 295 292 290 287 285 282 279 276 274 271 268 264 260 257 255 254 254 251 248 245 243 242 241 239 238 237 235 234 233 233 230 228 227 225 224 225 225 226 227
308 305 302 300 298 295 293 290 286 283 280 277 274 271 269 266 262 258 255 252 252 251 249 245 243 241 240 238 238 236 235 232 231 231 229 227 226 225 225 225 224 224 225
310 308 305 303 301 298 295 292 289 285 282 278 275 272 269 266 263 259 256 253 250 249 248 245 242 241 240 238 237 236 234 233 230 229 228 226 225 224 225 224 224 223 224
312 310 308 306 304 301 298 295 291 288 284 280 276 273 269 265 262 259 256 253 250 247 246 245 242 241 240 238 236 235 234 234 231 229 227 226 224 225 225 224 224 224 223
314 312 310 307 305 303 300 297 293 288 285 281 277 273 270 266 262 259 256 253 250 247 244 243 242 240 238 237 235 235 233 233 231 229 227 224 223 223 223 223 223 224 223
316 314 311 309 306 304 302 298 294 291 286 282 279 274 270 266 263 259 255 252 249 246 244 241 241 239 237 235 233 232 232 231 230 229 227 223 222 222 221 222 222 223 222
317 315 313 310 307 305 302 299 296 292 287 283 279 275 270 266 262 259 255 252 249 246 243 240 240 239 237 235 233 231 230 229 229 229 227 223 222 221 220 220 221 221 220
318 316 314 311 308 305 303 301 297 294 289 284 280 276 271 267 262 258 255 252 249 245 243 240 239 238 236 234 232 231 230 228 228 228 225 223 221 221 220 220 220 219 220
319 317 315 312 309 307 304 302 299 295 291 286 281 277 272 267 263 259 255 252 249 245 242 240 238 237 235 234 232 230 229 228 228 227 225 222 220 220 219 218 218 218 218
319 318 316 313 311 308 306 303 300 296 293 288 283 278 273 269 264 259 255 252 248 245 242 240 238 236 235 233 232 230 228 228 226 226 224 222 220 218 216 216 216 216 216
320 318 316 314 312 309 307 304 301 298 295 290 285 280 275 270 265 260 256 252 248 245 242 240 237 235 234 233 230 229 228 227 225 225 224 223 219 216 214 214 214 213 214
321 319 317 315 313 311 309 306 303 300 296 291 287 282 277 272 267 262 257 253 249 245 242 239 237 234 233 232 229 227 226 226 224 224 223 222 219 215 213 213 212 212 213
321 320 318 316 314 313 311 308 305 302 297 293 289 285 280 274 269 264 259 254 249 245 242 239 236 234 231 230 228 227 225 226 224 222 222 222 220 216 214 213 212 211 212
322 321 319 317 316 314 313 311 307 304 300 296 292 289 283 276 271 265 259 254 249 245 241 238 235 232 230 229 228 226 225 224 223 223 222 221 220 219 216 214 211 212 212
324 321 320 319 317 316 314 312 310 307 303 300 296 292 287 279 273 267 260 254 248 244 241 237 234 231 229 228 227 226 224 223 223 222 221 220 219 219 216 214 213 212 212